SCP
1 2 2 2 1 1 1 0 1 0 0 0 0 0 0 0 0 0 0 0 0 0 0 0 0 0 0 0 0 0 0 0 0 0 0 0 -0 -0
1 1 1 1 1 1 1 1 1 1 1 0 0 0 0 0 0 0 0 0 0 0 0 0 0 0 0 0 0 0 0 0 0 0 0 0 -0 -0
1 1 1 1 2 1 1 1 1 1 1 0 0 0 0 0 0 0 0 0 0 0 0 0 0 0 0 0 0 0 0 0 0 0 0 0 -0 -0
0 1 1 1 1 3 0 0 1 1 0 0 0 0 0 0 0 0 0 0 0 0 0 0 0 0 0 0 0 0 0 0 0 0 0 0 0 -0
0 0 0 1 1 1 1 0 0 0 0 0 0 0 0 0 0 0 0 0 0 0 0 0 0 0 0 0 0 0 0 0 0 0 0 0 0 -0
1 0 0 1 1 1 1 1 0 0 0 0 0 0 0 0 0 0 0 0 0 0 0 0 0 0 0 0 0 0 0 0 0 0 0 0 0 0
1 1 0 0 0 1 1 0 0 0 0 0 0 0 0 0 0 0 0 0 0 0 0 0 0 0 0 0 0 0 0 0 0 0 0 0 0 0
1 1 1 0 0 0 0 0 0 0 0 0 0 0 0 0 0 0 0 0 0 0 0 0 0 0 0 0 0 0 0 0 0 0 0 0 0 0
1 1 1 1 0 0 0 0 0 0 0 0 0 0 0 0 0 0 0 0 0 0 0 0 0 0 0 0 0 0 0 0 0 0 0 0 0 0
1 1 1 0 0 0 0 0 0 0 0 0 0 0 0 0 0 0 0 0 0 0 0 0 0 0 0 0 0 0 0 0 0 0 0 0 0 0
0 1 1 1 0 0 0 0 0 0 0 0 0 0 0 0 0 0 0 0 0 0 0 0 0 0 0 0 0 0 0 0 0 0 0 0 0 0
1 1 0 0 0 0 0 0 0 0 0 0 0 0 0 0 0 0 0 0 0 0 0 0 0 0 0 0 0 0 0 0 0 0 0 0 0 0
0 0 0 0 0 0 0 0 0 0 0 0 0 0 0 0 0 0 0 0 0 0 0 0 0 0 0 0 0 0 0 0 0 0 0 0 0 0
0 0 0 0 0 0 0 0 0 0 0 0 0 0 0 0 0 0 0 0 0 0 0 0 0 0 0 0 0 0 0 0 0 0 0 0 0 0
0 0 0 0 0 0 0 0 0 0 0 0 0 0 0 0 0 0 0 0 0 0 0 0 0 0 0 0 0 0 0 0 0 0 0 0 0 0
0 0 0 0 0 0 0 0 0 0 0 0 0 0 0 0 0 0 0 0 0 0 0 0 0 0 0 0 0 0 0 0 0 -0 0 0 0 0
0 0 0 0 0 0 0 0 0 0 0 0 0 0 0 0 0 0 0 0 0 0 0 0 0 0 0 0 0 0 0 0 0 0 0 0 0 0
0 0 0 0 0 0 0 0 0 0 0 0 0 0 0 0 0 0 0 0 0 0 0 0 0 0 0 0 0 0 0 0 0 0 0 0 0 0
0 0 0 0 0 0 0 0 0 0 0 0 0 0 0 0 0 0 0 0 0 0 0 0 0 0 0 0 0 0 0 0 0 0 0 0 0 0
0 0 0 0 0 0 0 0 0 0 0 0 0 0 0 0 0 0 0 0 0 0 0 0 0 0 0 0 0 0 0 0 0 0 0 0 0 0
0 0 0 0 0 0 0 0 0 0 0 0 0 0 0 0 0 0 0 0 0 0 0 0 0 0 0 0 0 0 0 0 0 0 0 0 0 0
0 0 0 0 0 0 0 0 0 0 0 0 0 0 0 0 0 0 0 0 0 0 0 0 0 0 0 0 0 0 0 0 0 0 0 0 0 0
0 0 0 0 0 0 0 0 0 0 0 0 0 0 0 0 0 0 0 0 0 0 0 0 0 0 0 0 0 0 0 0 0 0 0 0 0 0
Wind_Speed_500mb
52 63 83 84 76 64 60 49 43 28 31 29 22 35 32 31 34 18 17 12 18 18 25 35 44 51 56 58 50 48 48 45 42 42 45 44 43 40
48 52 58 66 63 71 65 64 46 41 31 26 28 32 37 30 31 24 21 12 18 16 22 31 41 49 54 56 52 52 52 51 50 49 47 46 44 42
52 56 59 59 71 51 67 72 57 53 32 26 30 32 40 36 33 29 21 12 16 13 18 27 37 45 51 53 52 55 56 56 56 54 51 50 49 44
53 55 61 59 68 73 63 69 60 59 44 49 35 35 39 40 33 31 22 17 12 10 15 23 32 39 46 49 52 55 58 59 59 58 57 54 51 46
57 57 58 59 59 56 61 60 60 55 50 52 36 36 38 40 37 30 27 23 16 22 13 18 30 33 39 46 51 54 57 59 60 60 60 54 50 45
60 60 59 63 67 64 82 76 64 60 61 47 39 41 40 43 34 35 30 23 21 8 10 16 23 33 39 44 47 51 54 58 59 60 59 53 51 50
62 62 64 62 66 75 78 89 74 70 59 54 45 43 42 47 47 38 30 26 23 17 18 11 12 9 23 36 44 48 51 55 56 57 56 49 49 53
71 65 65 66 75 79 82 88 83 74 69 59 52 52 52 46 44 40 34 33 26 22 19 6 6 4 14 30 38 44 47 50 52 51 49 50 52 56
68 67 68 68 76 74 87 82 71 66 66 62 62 55 58 51 49 44 38 33 23 22 25 13 11 6 8 24 33 39 45 46 49 47 41 44 55 61
70 73 71 75 77 70 81 79 75 64 57 55 51 48 48 54 50 41 41 34 26 25 26 17 15 9 6 13 30 37 45 43 47 50 42 43 57 57
67 70 71 79 76 62 70 81 75 73 68 58 48 50 45 48 47 44 44 36 29 30 29 19 19 15 9 7 15 29 38 42 49 50 50 50 48 48
71 77 79 79 71 66 72 90 89 85 75 63 51 46 46 44 42 38 40 35 32 26 29 25 26 21 9 7 10 16 18 39 44 47 53 61 67 47
74 78 75 71 70 74 79 104 100 89 72 71 67 63 58 53 47 35 36 32 35 17 32 26 27 20 11 16 11 15 19 23 26 31 45 60 64 68
80 82 72 67 70 68 96 107 101 80 80 78 67 57 54 48 42 40 44 38 39 29 42 32 25 24 21 18 11 13 19 22 25 30 35 41 48 56
78 80 68 64 63 79 80 100 87 83 90 77 62 56 53 49 51 49 47 37 33 29 37 35 26 25 22 18 15 9 10 19 21 26 32 38 42 46
81 71 62 64 73 105 101 100 80 92 94 73 61 64 56 54 47 45 44 40 38 35 33 29 30 28 26 22 22 20 16 11 15 21 26 31 38 44
70 61 59 82 98 104 93 86 81 83 81 67 74 70 56 53 48 45 42 42 39 40 37 33 33 31 29 24 22 18 15 16 16 17 20 26 32 40
75 72 66 89 106 106 92 82 81 85 81 78 76 61 62 59 56 49 44 44 43 42 42 39 36 32 29 32 28 18 14 12 14 17 18 19 25 30
84 88 82 94 96 98 97 91 91 86 87 78 67 67 63 58 59 54 49 48 45 43 41 40 36 31 28 20 22 26 15 11 10 11 14 16 16 21
83 101 95 113 115 106 101 101 91 84 82 74 71 70 65 64 58 55 52 51 49 46 43 38 33 27 23 23 22 23 22 14 9 7 5 9 12 29
87 97 110 119 127 116 109 99 92 87 82 78 71 68 64 63 59 54 52 51 50 46 44 38 35 34 30 31 25 18 15 12 11 11 6 6 6 10
92 103 112 127 128 105 102 95 94 85 81 74 69 64 64 60 58 56 54 55 49 45 40 37 38 30 29 23 23 22 16 13 12 13 13 13 17 4
100 117 116 132 125 104 99 97 95 85 78 73 68 63 62 60 56 53 52 50 46 46 44 37 38 31 27 25 24 23 19 15 10 7 9 11 13 13
Wind_Direction_500mb
242 240 237 239 240 235 234 235 224 220 224 221 192 200 199 197 223 209 247 280 297 318 344 358 2 4 11 13 17 20 18 17 15 13 13 10 7 359
245 243 239 233 232 232 229 231 226 239 250 213 195 200 192 190 216 183 209 267 279 303 336 356 0 3 10 13 18 23 21 19 17 17 16 13 11 6
245 240 245 238 232 234 238 236 229 231 222 196 181 208 196 183 207 183 225 198 255 280 327 352 359 1 9 10 20 24 22 22 19 18 17 15 14 14
247 246 248 240 239 235 239 236 229 229 209 210 194 202 193 184 200 192 182 194 210 278 322 344 355 360 8 11 20 23 24 23 20 18 16 18 18 19
245 244 245 242 235 226 225 230 231 229 215 213 211 199 188 183 188 183 185 185 195 259 310 344 352 359 8 17 19 22 23 24 21 18 15 17 19 21
249 245 245 242 236 232 231 237 228 224 208 210 203 190 185 186 187 185 186 188 196 205 259 314 358 3 10 19 20 21 24 26 21 19 17 17 20 23
249 246 247 243 239 235 232 228 230 227 206 202 190 189 184 189 188 190 187 188 194 188 249 306 32 360 15 17 24 21 22 28 25 18 20 19 24 27
250 246 246 248 241 237 241 232 236 228 216 199 196 198 192 192 184 187 181 182 184 194 199 204 151 38 25 26 28 26 26 28 29 23 21 29 32 32
250 246 248 247 249 251 241 235 227 230 228 220 205 202 200 189 182 180 180 180 185 181 163 167 157 122 65 27 35 34 34 33 31 29 22 32 36 34
256 250 246 247 255 249 243 217 215 217 209 212 223 217 211 185 190 176 172 166 172 159 167 162 166 151 110 28 39 42 44 42 40 34 31 38 39 25
253 244 238 246 250 248 231 210 200 194 195 200 204 206 198 190 176 167 167 168 169 173 170 171 172 151 116 90 13 40 37 49 46 43 41 43 49 31
252 248 244 246 245 247 237 212 191 190 188 189 186 181 178 177 183 170 169 172 171 168 182 168 174 158 116 102 71 53 26 34 28 38 44 48 41 37
248 248 243 241 240 244 225 205 194 188 184 186 176 174 173 173 175 167 166 179 174 169 181 158 178 179 164 141 97 65 51 47 40 33 23 26 30 39
245 247 245 244 232 239 226 194 190 183 181 179 172 169 166 162 168 165 164 169 174 184 169 154 174 164 157 144 123 84 59 49 46 39 39 33 28 23
243 243 247 243 237 209 202 200 188 178 182 175 168 165 162 163 170 175 182 181 178 172 170 151 163 164 153 151 132 123 96 52 50 44 44 38 35 32
233 236 248 243 229 195 190 192 179 180 183 174 165 160 161 165 159 167 166 159 154 145 151 150 153 147 144 135 122 104 95 92 52 59 46 47 38 38
220 222 232 210 197 189 184 174 174 177 172 167 163 162 159 157 156 155 155 147 146 145 140 137 136 137 135 128 122 113 100 80 70 66 57 50 47 36
217 217 203 195 183 185 173 165 171 173 168 165 165 161 159 159 156 157 155 151 150 150 149 150 145 138 131 135 128 116 108 98 78 66 71 61 53 43
214 215 214 205 190 184 165 167 169 170 171 170 163 160 160 159 158 159 157 154 155 154 153 152 152 148 146 147 149 133 120 116 100 79 79 74 65 41
224 215 206 184 179 176 172 176 171 168 167 163 160 160 160 159 161 161 160 159 158 159 157 160 162 164 169 164 152 149 146 119 121 121 111 61 38 30
204 198 194 188 178 179 175 172 171 164 162 159 161 161 161 160 164 163 162 161 162 162 162 164 169 162 153 147 135 130 139 127 125 131 124 143 110 54
190 181 176 175 173 164 166 168 169 162 162 160 162 162 161 163 164 163 165 166 164 166 164 169 170 160 153 153 155 147 135 128 110 91 99 136 165 153
190 182 171 171 170 166 169 172 167 162 161 163 161 163 163 165 165 166 165 167 167 167 170 166 164 163 164 168 160 154 156 139 132 99 55 77 88 83
Wind_Speed_850mb
52 63 83 84 76 64 60 49 43 28 31 29 22 35 32 31 34 18 17 12 18 18 25 35 44 51 56 58 50 48 48 45 42 42 45 44 43 40
48 52 58 66 63 71 65 64 46 41 31 26 28 32 37 30 31 24 21 12 18 16 22 31 41 49 54 56 52 52 52 51 50 49 47 46 44 42
52 56 59 59 71 51 67 72 57 53 32 26 30 32 40 36 33 29 21 12 16 13 18 27 37 45 51 53 52 55 56 56 56 54 51 50 49 44
53 55 61 59 68 73 63 69 60 59 44 49 35 35 39 40 33 31 22 17 12 10 15 23 32 39 46 49 52 55 58 59 59 58 57 54 51 46
57 57 58 59 59 56 61 60 60 55 50 52 36 36 38 40 37 30 27 23 16 22 13 18 30 33 39 46 51 54 57 59 60 60 60 54 50 45
60 60 59 63 67 64 82 76 64 60 61 47 39 41 40 43 34 35 30 23 21 8 10 16 23 33 39 44 47 51 54 58 59 60 59 53 51 50
62 62 64 62 66 75 78 89 74 70 59 54 45 43 42 47 47 38 30 26 23 17 18 11 12 9 23 36 44 48 51 55 56 57 56 49 49 53
71 65 65 66 75 79 82 88 83 74 69 59 52 52 52 46 44 40 34 33 26 22 19 6 6 4 14 30 38 44 47 50 52 51 49 50 52 56
68 67 68 68 76 74 87 82 71 66 66 62 62 55 58 51 49 44 38 33 23 22 25 13 11 6 8 24 33 39 45 46 49 47 41 44 55 61
70 73 71 75 77 70 81 79 75 64 57 55 51 48 48 54 50 41 41 34 26 25 26 17 15 9 6 13 30 37 45 43 47 50 42 43 57 57
67 70 71 79 76 62 70 81 75 73 68 58 48 50 45 48 47 44 44 36 29 30 29 19 19 15 9 7 15 29 38 42 49 50 50 50 48 48
71 77 79 79 71 66 72 90 89 85 75 63 51 46 46 44 42 38 40 35 32 26 29 25 26 21 9 7 10 16 18 39 44 47 53 61 67 47
74 78 75 71 70 74 79 104 100 89 72 71 67 63 58 53 47 35 36 32 35 17 32 26 27 20 11 16 11 15 19 23 26 31 45 60 64 68
80 82 72 67 70 68 96 107 101 80 80 78 67 57 54 48 42 40 44 38 39 29 42 32 25 24 21 18 11 13 19 22 25 30 35 41 48 56
78 80 68 64 63 79 80 100 87 83 90 77 62 56 53 49 51 49 47 37 33 29 37 35 26 25 22 18 15 9 10 19 21 26 32 38 42 46
81 71 62 64 73 105 101 100 80 92 94 73 61 64 56 54 47 45 44 40 38 35 33 29 30 28 26 22 22 20 16 11 15 21 26 31 38 44
70 61 59 82 98 104 93 86 81 83 81 67 74 70 56 53 48 45 42 42 39 40 37 33 33 31 29 24 22 18 15 16 16 17 20 26 32 40
75 72 66 89 106 106 92 82 81 85 81 78 76 61 62 59 56 49 44 44 43 42 42 39 36 32 29 32 28 18 14 12 14 17 18 19 25 30
84 88 82 94 96 98 97 91 91 86 87 78 67 67 63 58 59 54 49 48 45 43 41 40 36 31 28 20 22 26 15 11 10 11 14 16 16 21
83 101 95 113 115 106 101 101 91 84 82 74 71 70 65 64 58 55 52 51 49 46 43 38 33 27 23 23 22 23 22 14 9 7 5 9 12 29
87 97 110 119 127 116 109 99 92 87 82 78 71 68 64 63 59 54 52 51 50 46 44 38 35 34 30 31 25 18 15 12 11 11 6 6 6 10
92 103 112 127 128 105 102 95 94 85 81 74 69 64 64 60 58 56 54 55 49 45 40 37 38 30 29 23 23 22 16 13 12 13 13 13 17 4
100 117 116 132 125 104 99 97 95 85 78 73 68 63 62 60 56 53 52 50 46 46 44 37 38 31 27 25 24 23 19 15 10 7 9 11 13 13
Wind_Direction_850mb
242 240 237 239 240 235 234 235 224 220 224 221 192 200 199 197 223 209 247 280 297 318 344 358 2 4 11 13 17 20 18 17 15 13 13 10 7 359
245 243 239 233 232 232 229 231 226 239 250 213 195 200 192 190 216 183 209 267 279 303 336 356 0 3 10 13 18 23 21 19 17 17 16 13 11 6
245 240 245 238 232 234 238 236 229 231 222 196 181 208 196 183 207 183 225 198 255 280 327 352 359 1 9 10 20 24 22 22 19 18 17 15 14 14
247 246 248 240 239 235 239 236 229 229 209 210 194 202 193 184 200 192 182 194 210 278 322 344 355 360 8 11 20 23 24 23 20 18 16 18 18 19
245 244 245 242 235 226 225 230 231 229 215 213 211 199 188 183 188 183 185 185 195 259 310 344 352 359 8 17 19 22 23 24 21 18 15 17 19 21
249 245 245 242 236 232 231 237 228 224 208 210 203 190 185 186 187 185 186 188 196 205 259 314 358 3 10 19 20 21 24 26 21 19 17 17 20 23
249 246 247 243 239 235 232 228 230 227 206 202 190 189 184 189 188 190 187 188 194 188 249 306 32 360 15 17 24 21 22 28 25 18 20 19 24 27
250 246 246 248 241 237 241 232 236 228 216 199 196 198 192 192 184 187 181 182 184 194 199 204 151 38 25 26 28 26 26 28 29 23 21 29 32 32
250 246 248 247 249 251 241 235 227 230 228 220 205 202 200 189 182 180 180 180 185 181 163 167 157 122 65 27 35 34 34 33 31 29 22 32 36 34
256 250 246 247 255 249 243 217 215 217 209 212 223 217 211 185 190 176 172 166 172 159 167 162 166 151 110 28 39 42 44 42 40 34 31 38 39 25
253 244 238 246 250 248 231 210 200 194 195 200 204 206 198 190 176 167 167 168 169 173 170 171 172 151 116 90 13 40 37 49 46 43 41 43 49 31
252 248 244 246 245 247 237 212 191 190 188 189 186 181 178 177 183 170 169 172 171 168 182 168 174 158 116 102 71 53 26 34 28 38 44 48 41 37
248 248 243 241 240 244 225 205 194 188 184 186 176 174 173 173 175 167 166 179 174 169 181 158 178 179 164 141 97 65 51 47 40 33 23 26 30 39
245 247 245 244 232 239 226 194 190 183 181 179 172 169 166 162 168 165 164 169 174 184 169 154 174 164 157 144 123 84 59 49 46 39 39 33 28 23
243 243 247 243 237 209 202 200 188 178 182 175 168 165 162 163 170 175 182 181 178 172 170 151 163 164 153 151 132 123 96 52 50 44 44 38 35 32
233 236 248 243 229 195 190 192 179 180 183 174 165 160 161 165 159 167 166 159 154 145 151 150 153 147 144 135 122 104 95 92 52 59 46 47 38 38
220 222 232 210 197 189 184 174 174 177 172 167 163 162 159 157 156 155 155 147 146 145 140 137 136 137 135 128 122 113 100 80 70 66 57 50 47 36
217 217 203 195 183 185 173 165 171 173 168 165 165 161 159 159 156 157 155 151 150 150 149 150 145 138 131 135 128 116 108 98 78 66 71 61 53 43
214 215 214 205 190 184 165 167 169 170 171 170 163 160 160 159 158 159 157 154 155 154 153 152 152 148 146 147 149 133 120 116 100 79 79 74 65 41
224 215 206 184 179 176 172 176 171 168 167 163 160 160 160 159 161 161 160 159 158 159 157 160 162 164 169 164 152 149 146 119 121 121 111 61 38 30
204 198 194 188 178 179 175 172 171 164 162 159 161 161 161 160 164 163 162 161 162 162 162 164 169 162 153 147 135 130 139 127 125 131 124 143 110 54
190 181 176 175 173 164 166 168 169 162 162 160 162 162 161 163 164 163 165 166 164 166 164 169 170 160 153 153 155 147 135 128 110 91 99 136 165 153
190 182 171 171 170 166 169 172 167 162 161 163 161 163 163 165 165 166 165 167 167 167 170 166 164 163 164 168 160 154 156 139 132 99 55 77 88 83